Hourly Weather Roundup
Issued by NWS Central Illinois

Home | Current Version | Previous Version | Text Only | Print | Product List | Glossary On
Versions: 1 2 3 4 5 6 7 8 9 10 11 12 13 14 15 16 17 18 19 20 21 22 23 24 25 26 27 28 29 30 31 32 33 34 35 36 37 38 39 40 41 42 43 44 45 46 47 48 49 50
000
NZUS43 KILX 291010
HWRILX

AREA WEATHER ROUNDUP
NATIONAL WEATHER SERVICE, LINCOLN IL
500 AM CDT FRI MAY 29 2015


CITY           SKY/WX    TMP DP  RH WIND       PRES   REMARKS
BLOOMINGTON    MOCLDY    66  65  97 S10       30.03F FOG
CHAMPAIGN      MOCLDY    67  64  90 SE6       30.05S
DANVILLE       PTCLDY    65  63  92 SE6       30.04F
DECATUR        PTCLDY    67  64  90 SE7       30.03F
EFFINGHAM      PTCLDY    66  63  89 E3        30.06R
FLORA          CLEAR     64  62  95 CALM      30.04S
GALESBURG      CLOUDY    66  63  88 SE5       29.97F
JACKSONVILLE   MOCLDY    71  66  85 SE9       29.98F
LACON          CLOUDY    67  63  87 SE7       30.00S
LAWRENCEVILLE  CLEAR     65  62  90 E6        30.06S
LITCHFIELD     PTCLDY    66  63  89 SE6       30.02R
$$


CITY           SKY/WX    TMP DP  RH WIND       PRES   REMARKS
LINCOLN        CLOUDY    67  65  90 SE3       30.00S
MACOMB         MOCLDY    66  65  94 S3        30.00R
MATTOON        NOT AVBL
MT CARMEL AP   CLEAR     68  63  83 E3        30.06S
OLNEY-NOBLE AP PTCLDY    64  63  94 E3        30.05S
PARIS          PTCLDY    67  64  91 E3        30.06F
PEORIA         MOCLDY    71  64  78 S6        30.00S
PONTIAC        CLOUDY    70  65  86 S8        30.03S
RANTOUL        MOCLDY    68  65  90 SE3       30.05F
ROBINSON       CLEAR     65  63  94 SE6       30.07F
SPRINGFIELD    PTCLDY    68  65  90 SE7       30.00F
TAYLORVILLE    PTCLDY    64  63  94 SE6       30.02S
$$

...REGIONAL REPORTS...


CITY           SKY/WX    TMP DP  RH WIND       PRES   REMARKS
CHICAGO O`HARE CLOUDY    65  60  84 SE6       30.01F
KANKAKEE       MOCLDY    69  64  84 SE8       30.04F
MOLINE         CLOUDY    68  63  84 S5        29.96F
MOUNT VERNON   CLEAR     61  57  88 CALM      30.05S
PITTSFIELD     CLOUDY    69  65  88 S6        29.98S
QUINCY         LGT RAIN  68  65  90 S13G22    29.96S FOG
ROCKFORD       CLOUDY    65  57  75 SE7       30.01F
$$


CITY           SKY/WX    TMP DP  RH WIND       PRES   REMARKS
BURLINGTON     CLOUDY    68  66  93 S7        29.95F
CEDAR RAPIDS   CLOUDY    64  63  96 SE6       29.94F
DES MOINES     PTCLDY    63  61  93 S8        29.93S
KIRKSVILLE     CLOUDY    65  64  97 E3        29.94F
OTTUMWA        CLOUDY    64  63  96 SE6       29.93F
ST LOUIS       MOCLDY    72  65  78 S9        29.99S
$$


CITY           SKY/WX    TMP DP  RH WIND       PRES   REMARKS
TERRE HAUTE    CLEAR     64  61  90 E5        30.07F
EVANSVILLE     CLEAR     66  64  93 E3        30.06R
INDIANAPOLIS   MOCLDY    65  62  90 SE7       30.09R
LAFAYETTE      MOCLDY    64  62  93 SE5       30.07S
MADISON        LGT RAIN  63  59  87 N3        29.99F
MILWAUKEE      CLOUDY    59  53  80 SE5       30.01F
$$




USA.gov is the U.S. government's official web portal to all federal, state and local government web resources and services.